Location: Unspecified
(40.7945°N, 0.0000°E)
Time: 09:03:30
(UTC+00:00)

UWE-3 - Pass Details

Date: 15 August 2020
Orbit: 585 x 683 km, 97.6° (Epoch: 22 September)

Event Time Altitude Azimuth Distance (km) Brightness Sun altitude
Rises 04:11:14 0° 26° (NNE) 2,818 ? -11.0°
Reaches altitude 10° 04:13:46 10° 42° (NE) 1,914 ? -10.6°
Maximum altitude 04:17:04 23° 95° (E) 1,276 ? -10.1°
Drops below altitude 10° 04:20:23 10° 148° (SSE) 1,919 ? -9.5°
Sets 04:22:55 0° 163° (SSE) 2,827 ? -9.1°
